Weather in Perito Moreno

Argentina     46°35′27″S   70°55′17″W
temp.,
°C
wind,
m/s
gust,
m/s
humid.,
%
clouds,
%
prec.,
mm/h
press.,
hPa
HPBL,
m
22 april, thu
thu2200:00+6wnw61068100 0.0 1012263
03:00+5wnw357175 0.0 101381
06:00+5nnw347198 0.0 101158
09:00+5nnw2268100 0.0 101211
12:00+8w23555 0.0 1011567
15:00+11w334691 0.0 1010700
18:00+10wsw33478 0.0 1009423
21:00+8w22645 0.0 101113
23 april, fri
fri2300:00+7wnw22765 0.0 101213
03:00+6nnw118423 0.0 101210
06:00+5nw22845 0.0 101210
09:00+5nw22825 0.0 101411
12:00+9w56615 0.0 1014712
15:00+11w67503 0.0 1013959
18:00+11w6850100 0.0 1013879
21:00+9wnw8116550 0.0 1015335
24 april, sat
sat2400:00+7nw610725 0.0 1017226
03:00+7nw57745 0.0 1018115
06:00+7nw4571100 0.0 101871
09:00+7nw337098 0.0 101836
12:00+11wnw710615 0.0 1018697
15:00+13w912540 0.0 1016764
18:00+11w9126563 0.0 1016540
21:00+10wnw813709 0.0 1018339
25 april, sun
sun2500:00+9wnw7117561 0.0 1018277
03:00+8wnw597899 0.0 1018233
06:00+7nw347887 0.0 101751
09:00+6nw22735 0.0 101710
12:00+11w465461 0.0 1016568
15:00+13wnw79437 0.0 1013775
18:00+13w71150100 0.0 1012579
21:00+11wnw81365100 0.0 1013317
26 april, mon
mon2600:00+9wnw71271100 0.0 1013269
03:00+9wnw71275100 0.0 1012307
06:00+8wnw81475100 0.0 1011287
09:00+8wnw4676100 0.0 1011116
12:00+12wnw5854100 0.0 1010588
15:00+15wnw3548100 0.0 1007668
18:00+13nw5859100 0.0 1006491
21:00+12nw477383 0.0 1005152